Time,TemperatureF,DewpointF,PressureIn,WindDirection,WindDirectionDegrees,WindSpeedMPH,WindSpeedGustMPH,Humidity,HourlyPrecipIn,Conditions,Clouds,dailyrainin,SoftwareType,DateUTC
2013-04-26 00:04:00,51.3,41.1,30.16,North,0,0.0,0.0,68,0.00,,,0.00,WUHU216HW,2013-04-26 07:04:00,
2013-04-26 00:09:00,51.3,41.1,30.16,North,0,0.0,0.0,68,0.00,,,0.00,WUHU216HW,2013-04-26 07:09:00,
2013-04-26 00:14:00,51.3,41.5,30.16,North,0,0.0,0.0,69,0.00,,,0.00,WUHU216HW,2013-04-26 07:14:00,
2013-04-26 00:19:00,51.3,41.1,30.16,North,0,0.0,0.0,68,0.00,,,0.00,WUHU216HW,2013-04-26 07:19:00,
2013-04-26 00:24:00,51.1,41.0,30.16,North,0,0.0,0.0,68,0.00,,,0.00,WUHU216HW,2013-04-26 07:24:00,
2013-04-26 00:29:00,50.9,41.2,30.16,North,0,0.0,0.0,69,0.00,,,0.00,WUHU216HW,2013-04-26 07:29:00,
2013-04-26 00:34:00,50.9,41.6,30.17,North,0,0.0,0.0,70,0.00,,,0.00,WUHU216HW,2013-04-26 07:34:00,
2013-04-26 00:39:00,50.8,41.4,30.17,North,0,0.0,0.0,70,0.00,,,0.00,WUHU216HW,2013-04-26 07:39:00,
2013-04-26 00:44:00,50.8,41.4,30.17,North,0,0.0,0.0,70,0.00,,,0.00,WUHU216HW,2013-04-26 07:44:00,
2013-04-26 00:49:00,50.8,42.1,30.17,North,0,0.0,0.0,72,0.00,,,0.00,WUHU216HW,2013-04-26 07:49:00,
2013-04-26 00:54:00,50.8,41.8,30.17,North,0,0.0,0.0,71,0.00,,,0.00,WUHU216HW,2013-04-26 07:54:00,
2013-04-26 00:59:00,50.8,42.1,30.17,North,0,0.0,0.0,72,0.00,,,0.00,WUHU216HW,2013-04-26 07:59:00,
2013-04-26 01:04:00,50.8,42.1,30.18,North,0,0.0,0.0,72,0.00,,,0.00,WUHU216HW,2013-04-26 08:04:00,
2013-04-26 01:09:00,50.6,42.0,30.18,North,0,0.0,0.0,72,0.00,,,0.00,WUHU216HW,2013-04-26 08:09:00,
2013-04-26 01:14:00,50.4,41.8,30.18,North,0,0.0,0.0,72,0.00,,,0.00,WUHU216HW,2013-04-26 08:14:00,
2013-04-26 01:19:00,50.6,42.0,30.18,North,0,0.0,0.0,72,0.00,,,0.00,WUHU216HW,2013-04-26 08:19:00,
2013-04-26 01:24:00,50.8,42.8,30.18,North,0,0.0,0.0,74,0.00,,,0.00,WUHU216HW,2013-04-26 08:24:00,
2013-04-26 01:29:00,50.9,43.3,30.18,North,0,0.0,0.0,75,0.00,,,0.00,WUHU216HW,2013-04-26 08:29:00,
2013-04-26 01:34:00,50.9,42.9,30.18,North,0,0.0,0.0,74,0.00,,,0.00,WUHU216HW,2013-04-26 08:34:00,
2013-04-26 01:39:00,50.8,42.4,30.18,North,0,0.0,0.0,73,0.00,,,0.00,WUHU216HW,2013-04-26 08:39:00,
2013-04-26 01:44:00,50.4,42.0,30.17,North,0,0.0,0.0,73,0.00,,,0.00,WUHU216HW,2013-04-26 08:44:00,
2013-04-26 01:49:00,50.0,42.0,30.18,North,0,0.0,0.0,74,0.00,,,0.00,WUHU216HW,2013-04-26 08:49:00,
2013-04-26 01:54:00,49.7,42.0,30.18,North,0,0.0,0.0,75,0.00,,,0.00,WUHU216HW,2013-04-26 08:54:00,
2013-04-26 01:59:00,49.5,41.9,30.18,North,0,0.0,0.0,75,0.00,,,0.00,WUHU216HW,2013-04-26 08:59:00,
2013-04-26 02:04:00,49.3,41.7,30.18,North,0,0.0,0.0,75,0.00,,,0.00,WUHU216HW,2013-04-26 09:04:00,
2013-04-26 02:09:00,49.3,42.4,30.18,North,0,0.0,0.0,77,0.00,,,0.00,WUHU216HW,2013-04-26 09:09:00,
2013-04-26 02:14:00,49.1,42.5,30.18,North,0,0.0,0.0,78,0.00,,,0.00,WUHU216HW,2013-04-26 09:14:00,
2013-04-26 02:19:00,49.0,42.3,30.18,North,0,0.0,0.0,78,0.00,,,0.00,WUHU216HW,2013-04-26 09:19:00,
2013-04-26 02:24:00,48.6,41.9,30.18,North,0,0.0,0.0,78,0.00,,,0.00,WUHU216HW,2013-04-26 09:24:00,
2013-04-26 02:29:00,48.6,42.3,30.18,North,0,0.0,0.0,79,0.00,,,0.00,WUHU216HW,2013-04-26 09:29:00,
2013-04-26 02:34:00,48.2,41.9,30.18,North,0,0.0,0.0,79,0.00,,,0.00,WUHU216HW,2013-04-26 09:34:00,
2013-04-26 02:39:00,48.1,41.8,30.18,North,0,0.0,0.0,79,0.00,,,0.00,WUHU216HW,2013-04-26 09:39:00,
2013-04-26 02:44:00,47.9,41.7,30.19,North,0,0.0,0.0,79,0.00,,,0.00,WUHU216HW,2013-04-26 09:44:00,
2013-04-26 02:49:00,47.9,41.7,30.19,North,0,0.0,0.0,79,0.00,,,0.00,WUHU216HW,2013-04-26 09:49:00,
2013-04-26 02:54:00,47.9,41.9,30.19,North,0,0.0,0.0,80,0.00,,,0.00,WUHU216HW,2013-04-26 09:54:00,
2013-04-26 02:59:00,47.7,41.9,30.19,North,0,0.0,0.0,80,0.00,,,0.00,WUHU216HW,2013-04-26 09:59:00,
2013-04-26 03:04:00,47.5,41.7,30.19,North,0,0.0,0.0,80,0.00,,,0.00,WUHU216HW,2013-04-26 10:04:00,
2013-04-26 03:09:00,47.2,41.7,30.19,North,0,0.0,0.0,81,0.00,,,0.00,WUHU216HW,2013-04-26 10:09:00,
2013-04-26 03:14:00,47.2,41.7,30.19,North,0,0.0,0.0,81,0.00,,,0.00,WUHU216HW,2013-04-26 10:14:00,
2013-04-26 03:20:00,46.8,41.6,30.19,North,0,0.0,0.0,82,0.00,,,0.00,WUHU216HW,2013-04-26 10:20:00,
2013-04-26 03:25:00,46.8,42.2,30.20,North,0,0.0,0.0,84,0.00,,,0.00,WUHU216HW,2013-04-26 10:25:00,
2013-04-26 03:30:00,46.6,41.8,30.21,North,0,0.0,0.0,83,0.00,,,0.00,WUHU216HW,2013-04-26 10:30:00,
2013-04-26 03:35:00,46.4,41.6,30.20,North,0,0.0,0.0,83,0.00,,,0.00,WUHU216HW,2013-04-26 10:35:00,
2013-04-26 03:40:00,46.3,41.4,30.20,North,0,0.0,0.0,83,0.00,,,0.00,WUHU216HW,2013-04-26 10:40:00,
2013-04-26 03:45:00,46.1,41.6,30.20,North,0,0.0,0.0,84,0.00,,,0.00,WUHU216HW,2013-04-26 10:45:00,
2013-04-26 03:50:00,45.9,41.4,30.20,North,0,0.0,0.0,84,0.00,,,0.00,WUHU216HW,2013-04-26 10:50:00,
2013-04-26 03:55:00,45.7,40.9,30.20,North,0,0.0,0.0,83,0.00,,,0.00,WUHU216HW,2013-04-26 10:55:00,
2013-04-26 04:00:00,45.7,41.2,30.20,North,0,0.0,0.0,84,0.00,,,0.00,WUHU216HW,2013-04-26 11:00:00,
2013-04-26 04:05:00,45.5,41.3,30.20,North,0,0.0,0.0,85,0.00,,,0.00,WUHU216HW,2013-04-26 11:05:00,
2013-04-26 04:10:00,45.4,41.1,30.21,North,0,0.0,0.0,85,0.00,,,0.00,WUHU216HW,2013-04-26 11:10:00,
2013-04-26 04:15:00,45.4,41.1,30.21,North,0,0.0,0.0,85,0.00,,,0.00,WUHU216HW,2013-04-26 11:15:00,
2013-04-26 04:20:00,45.2,41.0,30.21,North,0,0.0,0.0,85,0.00,,,0.00,WUHU216HW,2013-04-26 11:20:00,
2013-04-26 04:25:00,45.2,41.0,30.20,North,0,0.0,0.0,85,0.00,,,0.00,WUHU216HW,2013-04-26 11:25:00,
2013-04-26 04:30:00,45.2,41.6,30.20,North,0,0.0,0.0,87,0.00,,,0.00,WUHU216HW,2013-04-26 11:30:00,
2013-04-26 04:35:00,45.0,41.7,30.20,North,0,0.0,0.0,88,0.00,,,0.00,WUHU216HW,2013-04-26 11:35:00,
2013-04-26 04:40:00,45.0,41.7,30.20,North,0,0.0,0.0,88,0.00,,,0.00,WUHU216HW,2013-04-26 11:40:00,
2013-04-26 04:45:00,44.8,41.2,30.20,North,0,0.0,0.0,87,0.00,,,0.00,WUHU216HW,2013-04-26 11:45:00,
2013-04-26 04:50:00,44.6,41.3,30.20,North,0,0.0,0.0,88,0.00,,,0.00,WUHU216HW,2013-04-26 11:50:00,
2013-04-26 04:55:00,44.6,41.3,30.20,North,0,0.0,0.0,88,0.00,,,0.00,WUHU216HW,2013-04-26 11:55:00,
2013-04-26 05:00:00,44.5,41.1,30.20,North,0,0.0,0.0,88,0.00,,,0.00,WUHU216HW,2013-04-26 12:00:00,
2013-04-26 05:05:00,44.6,41.3,30.20,North,0,0.0,0.0,88,0.00,,,0.00,WUHU216HW,2013-04-26 12:05:00,
2013-04-26 05:10:00,44.3,41.0,30.20,North,0,0.0,0.0,88,0.00,,,0.00,WUHU216HW,2013-04-26 12:10:00,
2013-04-26 05:15:00,44.1,40.5,30.20,North,0,0.0,0.0,87,0.00,,,0.00,WUHU216HW,2013-04-26 12:15:00,
2013-04-26 05:20:00,44.1,40.5,30.20,North,0,0.0,0.0,87,0.00,,,0.00,WUHU216HW,2013-04-26 12:20:00,
2013-04-26 05:25:00,44.1,40.8,30.20,North,0,0.0,0.0,88,0.00,,,0.00,WUHU216HW,2013-04-26 12:25:00,
2013-04-26 05:30:00,44.1,40.8,30.20,North,0,0.0,0.0,88,0.00,,,0.00,WUHU216HW,2013-04-26 12:30:00,
2013-04-26 05:35:00,43.9,40.3,30.20,North,0,0.0,0.0,87,0.00,,,0.00,WUHU216HW,2013-04-26 12:35:00,
2013-04-26 05:40:00,43.9,40.6,30.19,North,0,0.0,0.0,88,0.00,,,0.00,WUHU216HW,2013-04-26 12:40:00,
2013-04-26 05:45:00,44.1,40.8,30.20,North,0,0.0,0.0,88,0.00,,,0.00,WUHU216HW,2013-04-26 12:45:00,
2013-04-26 05:50:00,43.9,40.6,30.20,North,0,0.0,0.0,88,0.00,,,0.00,WUHU216HW,2013-04-26 12:50:00,
2013-04-26 05:55:00,43.7,40.4,30.20,North,0,0.0,0.0,88,0.00,,,0.00,WUHU216HW,2013-04-26 12:55:00,
2013-04-26 06:00:00,43.6,40.2,30.20,North,0,0.0,0.0,88,0.00,,,0.00,WUHU216HW,2013-04-26 13:00:00,
2013-04-26 06:05:00,43.4,40.1,30.20,North,0,0.0,0.0,88,0.00,,,0.00,WUHU216HW,2013-04-26 13:05:00,
2013-04-26 06:10:00,43.6,40.2,30.21,North,0,0.0,0.0,88,0.00,,,0.00,WUHU216HW,2013-04-26 13:10:00,
2013-04-26 06:15:00,43.6,40.2,30.20,North,0,0.0,0.0,88,0.00,,,0.00,WUHU216HW,2013-04-26 13:15:00,
2013-04-26 06:20:00,43.6,40.2,30.20,North,0,0.0,0.0,88,0.00,,,0.00,WUHU216HW,2013-04-26 13:20:00,
2013-04-26 06:25:00,43.6,40.2,30.21,North,0,0.0,0.0,88,0.00,,,0.00,WUHU216HW,2013-04-26 13:25:00,
2013-04-26 06:30:00,43.6,40.2,30.21,North,0,0.0,0.0,88,0.00,,,0.00,WUHU216HW,2013-04-26 13:30:00,
2013-04-26 06:35:00,44.1,40.8,30.21,North,0,0.0,0.0,88,0.00,,,0.00,WUHU216HW,2013-04-26 13:35:00,
2013-04-26 06:40:00,44.5,41.1,30.21,North,0,0.0,0.0,88,0.00,,,0.00,WUHU216HW,2013-04-26 13:40:00,
2013-04-26 06:45:00,44.8,41.9,30.21,North,0,0.0,0.0,89,0.00,,,0.00,WUHU216HW,2013-04-26 13:45:00,
2013-04-26 06:50:00,45.0,41.7,30.21,North,0,0.0,0.0,88,0.00,,,0.00,WUHU216HW,2013-04-26 13:50:00,
2013-04-26 06:55:00,45.4,42.0,30.22,North,0,0.0,0.0,88,0.00,,,0.00,WUHU216HW,2013-04-26 13:55:00,
2013-04-26 07:00:00,45.5,42.2,30.22,North,0,0.0,0.0,88,0.00,,,0.00,WUHU216HW,2013-04-26 14:00:00,
2013-04-26 07:05:00,45.7,43.3,30.22,North,0,0.0,0.0,91,0.00,,,0.00,WUHU216HW,2013-04-26 14:05:00,
2013-04-26 07:10:00,45.7,43.0,30.22,North,0,0.0,0.0,90,0.00,,,0.00,WUHU216HW,2013-04-26 14:10:00,
2013-04-26 07:15:00,45.7,42.8,30.22,North,0,0.0,0.0,89,0.00,,,0.00,WUHU216HW,2013-04-26 14:15:00,
2013-04-26 07:20:00,45.7,42.8,30.22,North,0,0.0,0.0,89,0.00,,,0.00,WUHU216HW,2013-04-26 14:20:00,
2013-04-26 07:25:00,46.1,43.1,30.23,North,0,0.0,0.0,89,0.00,,,0.00,WUHU216HW,2013-04-26 14:25:00,
2013-04-26 07:30:00,46.1,42.8,30.23,North,0,0.0,0.0,88,0.00,,,0.00,WUHU216HW,2013-04-26 14:30:00,
2013-04-26 07:35:00,46.3,42.9,30.23,North,0,0.0,0.0,88,0.00,,,0.00,WUHU216HW,2013-04-26 14:35:00,
2013-04-26 07:41:00,46.6,43.3,30.23,North,0,0.0,0.0,88,0.00,,,0.00,WUHU216HW,2013-04-26 14:41:00,
2013-04-26 07:46:00,46.8,43.5,30.23,North,0,0.0,0.0,88,0.00,,,0.00,WUHU216HW,2013-04-26 14:46:00,
2013-04-26 07:53:00,46.6,43.3,30.23,North,0,0.0,0.0,88,0.00,,,0.00,WUHU216HW,2013-04-26 14:53:00,
2013-04-26 07:58:00,47.0,44.0,30.24,North,0,0.0,0.0,89,0.00,,,0.00,WUHU216HW,2013-04-26 14:58:00,
2013-04-26 08:03:00,47.2,43.8,30.24,North,0,0.0,0.0,88,0.00,,,0.00,WUHU216HW,2013-04-26 15:03:00,
2013-04-26 08:08:00,47.3,44.0,30.24,North,0,0.0,0.0,88,0.00,,,0.00,WUHU216HW,2013-04-26 15:08:00,
2013-04-26 08:13:00,47.5,44.2,30.24,North,0,0.0,0.0,88,0.00,,,0.00,WUHU216HW,2013-04-26 15:13:00,
2013-04-26 08:18:00,47.9,44.6,30.24,North,0,0.0,0.0,88,0.00,,,0.00,WUHU216HW,2013-04-26 15:18:00,
2013-04-26 08:23:00,48.1,44.4,30.24,North,0,0.0,0.0,87,0.00,,,0.00,WUHU216HW,2013-04-26 15:23:00,
2013-04-26 08:28:00,48.2,44.6,30.24,North,0,0.0,0.0,87,0.00,,,0.00,WUHU216HW,2013-04-26 15:28:00,
2013-04-26 08:33:00,48.4,44.4,30.24,North,0,0.0,0.0,86,0.00,,,0.00,WUHU216HW,2013-04-26 15:33:00,
2013-04-26 08:38:00,48.6,44.6,30.24,North,0,0.0,0.0,86,0.00,,,0.00,WUHU216HW,2013-04-26 15:38:00,
2013-04-26 08:43:00,48.8,44.7,30.24,North,0,0.0,0.0,86,0.00,,,0.00,WUHU216HW,2013-04-26 15:43:00,
2013-04-26 08:48:00,49.1,44.8,30.24,North,0,0.0,0.0,85,0.00,,,0.00,WUHU216HW,2013-04-26 15:48:00,
2013-04-26 08:53:00,49.7,45.6,30.24,North,0,0.0,0.0,86,0.00,,,0.00,WUHU216HW,2013-04-26 15:53:00,
2013-04-26 08:58:00,50.0,45.9,30.24,North,0,0.0,0.0,86,0.00,,,0.00,WUHU216HW,2013-04-26 15:58:00,
2013-04-26 09:03:00,50.0,45.6,30.23,North,0,0.0,0.0,85,0.00,,,0.00,WUHU216HW,2013-04-26 16:03:00,
2013-04-26 09:08:00,50.4,45.7,30.24,North,0,0.0,0.0,84,0.00,,,0.00,WUHU216HW,2013-04-26 16:08:00,
2013-04-26 09:13:00,50.9,46.3,30.24,North,0,0.0,0.0,84,0.00,,,0.00,WUHU216HW,2013-04-26 16:13:00,
2013-04-26 09:18:00,51.3,46.3,30.24,North,0,0.0,0.0,83,0.00,,,0.00,WUHU216HW,2013-04-26 16:18:00,
2013-04-26 09:23:00,51.5,46.2,30.23,North,0,0.0,0.0,82,0.00,,,0.00,WUHU216HW,2013-04-26 16:23:00,
2013-04-26 09:28:00,51.5,46.2,30.23,North,0,0.0,0.0,82,0.00,,,0.00,WUHU216HW,2013-04-26 16:28:00,
2013-04-26 09:33:00,51.8,46.5,30.23,North,0,0.0,0.0,82,0.00,,,0.00,WUHU216HW,2013-04-26 16:33:00,
2013-04-26 09:38:00,52.2,46.5,30.23,North,0,0.0,0.0,81,0.00,,,0.00,WUHU216HW,2013-04-26 16:38:00,
2013-04-26 09:43:00,52.2,46.3,30.23,North,0,0.0,0.0,80,0.00,,,0.00,WUHU216HW,2013-04-26 16:43:00,
2013-04-26 09:48:00,51.8,45.9,30.24,North,0,0.0,0.0,80,0.00,,,0.00,WUHU216HW,2013-04-26 16:48:00,
2013-04-26 09:53:00,52.0,46.4,30.24,North,0,0.0,0.0,81,0.00,,,0.00,WUHU216HW,2013-04-26 16:53:00,
2013-04-26 09:58:00,52.2,46.3,30.23,North,0,0.0,0.0,80,0.00,,,0.00,WUHU216HW,2013-04-26 16:58:00,
2013-04-26 10:03:00,52.4,46.4,30.23,North,0,0.0,0.0,80,0.00,,,0.00,WUHU216HW,2013-04-26 17:03:00,
2013-04-26 10:08:00,53.3,47.3,30.23,North,0,0.0,0.0,80,0.00,,,0.00,WUHU216HW,2013-04-26 17:08:00,
2013-04-26 10:13:00,53.8,47.5,30.23,North,0,0.0,0.0,79,0.00,,,0.00,WUHU216HW,2013-04-26 17:13:00,
2013-04-26 10:18:00,54.2,47.5,30.22,North,0,0.0,0.0,78,0.00,,,0.00,WUHU216HW,2013-04-26 17:18:00,
2013-04-26 10:23:00,54.4,47.6,30.22,North,0,0.0,0.0,78,0.00,,,0.00,WUHU216HW,2013-04-26 17:23:00,
2013-04-26 10:28:00,54.9,48.2,30.22,North,0,0.0,0.0,78,0.00,,,0.00,WUHU216HW,2013-04-26 17:28:00,
2013-04-26 10:33:00,54.9,48.2,30.23,North,0,0.0,0.0,78,0.00,,,0.00,WUHU216HW,2013-04-26 17:33:00,
2013-04-26 10:38:00,54.7,48.0,30.23,North,0,0.0,0.0,78,0.00,,,0.00,WUHU216HW,2013-04-26 17:38:00,
2013-04-26 10:43:00,55.3,47.8,30.23,North,0,0.0,0.0,76,0.00,,,0.00,WUHU216HW,2013-04-26 17:43:00,
2013-04-26 10:48:00,55.3,47.8,30.23,North,0,0.0,0.0,76,0.00,,,0.00,WUHU216HW,2013-04-26 17:48:00,
2013-04-26 10:53:00,55.8,48.0,30.24,North,0,0.0,0.0,75,0.00,,,0.00,WUHU216HW,2013-04-26 17:53:00,
2013-04-26 10:58:00,56.0,47.8,30.24,North,0,0.0,0.0,74,0.00,,,0.00,WUHU216HW,2013-04-26 17:58:00,
2013-04-26 11:03:00,56.5,48.0,30.24,North,0,0.0,0.0,73,0.00,,,0.00,WUHU216HW,2013-04-26 18:03:00,
2013-04-26 11:09:00,56.5,48.0,30.24,North,0,0.0,0.0,73,0.00,,,0.00,WUHU216HW,2013-04-26 18:09:00,
2013-04-26 11:14:00,57.4,48.8,30.24,North,0,0.0,0.0,73,0.00,,,0.00,WUHU216HW,2013-04-26 18:14:00,
2013-04-26 11:20:00,57.6,48.2,30.24,North,0,0.0,0.0,71,0.00,,,0.00,WUHU216HW,2013-04-26 18:20:00,
2013-04-26 11:25:00,58.3,49.0,30.24,North,0,0.0,0.0,71,0.00,,,0.00,WUHU216HW,2013-04-26 18:25:00,
2013-04-26 11:31:00,59.2,49.9,30.24,North,0,0.0,0.0,71,0.00,,,0.00,WUHU216HW,2013-04-26 18:31:00,
2013-04-26 11:36:00,59.4,48.4,30.24,North,0,0.0,0.0,67,0.00,,,0.00,WUHU216HW,2013-04-26 18:36:00,
2013-04-26 11:41:00,59.9,49.0,30.24,North,0,0.0,0.0,67,0.00,,,0.00,WUHU216HW,2013-04-26 18:41:00,
2013-04-26 11:46:00,60.1,48.8,30.24,North,0,0.0,0.0,66,0.00,,,0.00,WUHU216HW,2013-04-26 18:46:00,
2013-04-26 11:51:00,60.5,49.2,30.24,North,0,0.0,0.0,66,0.00,,,0.00,WUHU216HW,2013-04-26 18:51:00,
2013-04-26 11:56:00,60.5,48.7,30.24,North,0,0.0,0.0,65,0.00,,,0.00,WUHU216HW,2013-04-26 18:56:00,
2013-04-26 12:02:00,60.8,49.1,30.24,North,0,0.0,0.0,65,0.00,,,0.00,WUHU216HW,2013-04-26 19:02:00,
2013-04-26 12:07:00,60.8,48.3,30.24,North,0,0.0,0.0,63,0.00,,,0.00,WUHU216HW,2013-04-26 19:07:00,
2013-04-26 12:12:00,61.0,48.8,30.24,North,0,0.0,0.0,64,0.00,,,0.00,WUHU216HW,2013-04-26 19:12:00,
2013-04-26 12:17:00,61.2,47.7,30.24,North,0,0.0,0.0,61,0.00,,,0.00,WUHU216HW,2013-04-26 19:17:00,
2013-04-26 12:22:00,61.2,48.2,30.24,North,0,0.0,0.0,62,0.00,,,0.00,WUHU216HW,2013-04-26 19:22:00,
2013-04-26 12:27:00,61.7,48.6,30.24,North,0,0.0,0.0,62,0.00,,,0.00,WUHU216HW,2013-04-26 19:27:00,
2013-04-26 12:32:00,62.5,48.4,30.24,North,0,0.0,0.0,60,0.00,,,0.00,WUHU216HW,2013-04-26 19:32:00,
2013-04-26 12:37:00,62.5,48.4,30.24,North,0,0.0,0.0,60,0.00,,,0.00,WUHU216HW,2013-04-26 19:37:00,
2013-04-26 12:42:00,62.5,48.9,30.24,North,0,0.0,0.0,61,0.00,,,0.00,WUHU216HW,2013-04-26 19:42:00,
2013-04-26 12:47:00,62.8,48.8,30.24,North,0,0.0,0.0,60,0.00,,,0.00,WUHU216HW,2013-04-26 19:47:00,
2013-04-26 12:52:00,62.6,48.6,30.24,North,0,0.0,0.0,60,0.00,,,0.00,WUHU216HW,2013-04-26 19:52:00,
2013-04-26 12:57:00,62.5,48.4,30.24,North,0,0.0,0.0,60,0.00,,,0.00,WUHU216HW,2013-04-26 19:57:00,
2013-04-26 13:02:00,62.6,47.2,30.24,North,0,0.0,0.0,57,0.00,,,0.00,WUHU216HW,2013-04-26 20:02:00,
2013-04-26 13:07:00,62.8,46.4,30.24,North,0,0.0,0.0,55,0.00,,,0.00,WUHU216HW,2013-04-26 20:07:00,
2013-04-26 13:12:00,63.4,46.8,30.24,North,0,0.0,0.0,55,0.00,,,0.00,WUHU216HW,2013-04-26 20:12:00,
2013-04-26 13:17:00,63.5,46.5,30.24,North,0,0.0,0.0,54,0.00,,,0.00,WUHU216HW,2013-04-26 20:17:00,
2013-04-26 13:22:00,63.4,47.4,30.24,North,0,0.0,0.0,56,0.00,,,0.00,WUHU216HW,2013-04-26 20:22:00,
2013-04-26 13:27:00,63.4,47.8,30.25,North,0,0.0,0.0,57,0.00,,,0.00,WUHU216HW,2013-04-26 20:27:00,
2013-04-26 13:32:00,63.9,46.4,30.25,North,0,0.0,0.0,53,0.00,,,0.00,WUHU216HW,2013-04-26 20:32:00,
2013-04-26 13:37:00,64.1,47.4,30.25,North,0,0.0,0.0,55,0.00,,,0.00,WUHU216HW,2013-04-26 20:37:00,
2013-04-26 13:42:00,64.6,47.0,30.25,North,0,0.0,0.0,53,0.00,,,0.00,WUHU216HW,2013-04-26 20:42:00,
2013-04-26 13:47:00,64.8,46.7,30.25,North,0,0.0,0.0,52,0.00,,,0.00,WUHU216HW,2013-04-26 20:47:00,
2013-04-26 13:52:00,64.3,46.6,30.25,North,0,0.0,0.0,53,0.00,,,0.00,WUHU216HW,2013-04-26 20:52:00,
2013-04-26 13:57:00,64.8,48.2,30.24,North,0,0.0,0.0,55,0.00,,,0.00,WUHU216HW,2013-04-26 20:57:00,
2013-04-26 14:02:00,65.9,47.8,30.24,North,0,0.0,0.0,52,0.00,,,0.00,WUHU216HW,2013-04-26 21:02:00,
2013-04-26 14:07:00,66.2,48.6,30.25,North,0,0.0,0.0,53,0.00,,,0.00,WUHU216HW,2013-04-26 21:07:00,
2013-04-26 14:12:00,66.6,49.0,30.25,North,0,0.0,0.0,53,0.00,,,0.00,WUHU216HW,2013-04-26 21:12:00,
2013-04-26 14:17:00,66.8,49.6,30.25,North,0,0.0,0.0,54,0.00,,,0.00,WUHU216HW,2013-04-26 21:17:00,
2013-04-26 14:22:00,66.6,48.4,30.25,North,0,0.0,0.0,52,0.00,,,0.00,WUHU216HW,2013-04-26 21:22:00,
2013-04-26 14:27:00,66.2,48.6,30.25,North,0,0.0,0.0,53,0.00,,,0.00,WUHU216HW,2013-04-26 21:27:00,
2013-04-26 14:32:00,66.2,48.6,30.24,North,0,0.0,0.0,53,0.00,,,0.00,WUHU216HW,2013-04-26 21:32:00,
2013-04-26 14:37:00,66.6,49.4,30.24,North,0,0.0,0.0,54,0.00,,,0.00,WUHU216HW,2013-04-26 21:37:00,
2013-04-26 14:42:00,67.1,50.0,30.24,North,0,0.0,0.0,54,0.00,,,0.00,WUHU216HW,2013-04-26 21:42:00,
2013-04-26 14:47:00,67.9,50.0,30.24,North,0,0.0,0.0,53,0.00,,,0.00,WUHU216HW,2013-04-26 21:47:00,
2013-04-26 14:52:00,68.0,49.8,30.24,North,0,0.0,0.0,52,0.00,,,0.00,WUHU216HW,2013-04-26 21:52:00,
2013-04-26 14:58:00,68.2,49.4,30.24,North,0,0.0,0.0,51,0.00,,,0.00,WUHU216HW,2013-04-26 21:58:00,
2013-04-26 15:03:00,68.0,49.2,30.24,North,0,0.0,0.0,51,0.00,,,0.00,WUHU216HW,2013-04-26 22:03:00,
2013-04-26 15:08:00,67.9,48.1,30.24,North,0,0.0,0.0,49,0.00,,,0.00,WUHU216HW,2013-04-26 22:08:00,
2013-04-26 15:13:00,67.7,48.4,30.24,North,0,0.0,0.0,50,0.00,,,0.00,WUHU216HW,2013-04-26 22:13:00,
2013-04-26 15:18:00,68.2,47.8,30.24,North,0,0.0,0.0,48,0.00,,,0.00,WUHU216HW,2013-04-26 22:18:00,
2013-04-26 15:23:00,68.0,47.0,30.24,North,0,0.0,0.0,47,0.00,,,0.00,WUHU216HW,2013-04-26 22:23:00,
2013-04-26 15:28:00,67.9,46.3,30.24,North,0,0.0,0.0,46,0.00,,,0.00,WUHU216HW,2013-04-26 22:28:00,
2013-04-26 15:33:00,67.7,46.7,30.24,North,0,0.0,0.0,47,0.00,,,0.00,WUHU216HW,2013-04-26 22:33:00,
2013-04-26 15:39:00,67.9,46.8,30.23,North,0,0.0,0.0,47,0.00,,,0.00,WUHU216HW,2013-04-26 22:39:00,
2013-04-26 15:44:00,67.7,46.7,30.23,North,0,0.0,0.0,47,0.00,,,0.00,WUHU216HW,2013-04-26 22:44:00,
2013-04-26 15:49:00,67.9,48.1,30.23,North,0,0.0,0.0,49,0.00,,,0.00,WUHU216HW,2013-04-26 22:49:00,
2013-04-26 15:54:00,68.4,48.5,30.23,North,0,0.0,0.0,49,0.00,,,0.00,WUHU216HW,2013-04-26 22:54:00,
2013-04-26 15:59:00,68.8,48.2,30.23,North,0,0.0,0.0,48,0.00,,,0.00,WUHU216HW,2013-04-26 22:59:00,
2013-04-26 16:04:00,68.6,47.5,30.22,North,0,0.0,0.0,47,0.00,,,0.00,WUHU216HW,2013-04-26 23:04:00,
2013-04-26 16:09:00,68.8,48.2,30.22,North,0,0.0,0.0,48,0.00,,,0.00,WUHU216HW,2013-04-26 23:09:00,
2013-04-26 16:14:00,68.8,48.2,30.23,North,0,0.0,0.0,48,0.00,,,0.00,WUHU216HW,2013-04-26 23:14:00,
2013-04-26 16:19:00,68.9,48.4,30.22,North,0,0.0,0.0,48,0.00,,,0.00,WUHU216HW,2013-04-26 23:19:00,
2013-04-26 16:24:00,69.5,48.3,30.22,North,0,0.0,0.0,47,0.00,,,0.00,WUHU216HW,2013-04-26 23:24:00,
2013-04-26 16:29:00,69.8,48.6,30.22,North,0,0.0,0.0,47,0.00,,,0.00,WUHU216HW,2013-04-26 23:29:00,
2013-04-26 16:34:00,69.8,45.1,30.22,North,0,0.0,0.0,41,0.00,,,0.00,WUHU216HW,2013-04-26 23:34:00,
2013-04-26 16:39:00,69.7,44.9,30.22,North,0,0.0,0.0,41,0.00,,,0.00,WUHU216HW,2013-04-26 23:39:00,
2013-04-26 16:44:00,70.0,45.8,30.22,North,0,0.0,0.0,42,0.00,,,0.00,WUHU216HW,2013-04-26 23:44:00,
2013-04-26 16:49:00,70.2,46.5,30.22,North,0,0.0,0.0,43,0.00,,,0.00,WUHU216HW,2013-04-26 23:49:00,
2013-04-26 16:54:00,70.0,46.5,30.22,North,0,0.0,0.0,43,0.00,,,0.00,WUHU216HW,2013-04-26 23:54:00,
2013-04-26 17:05:00,69.8,45.1,30.22,North,0,0.0,0.0,41,0.00,,,0.00,WUHU216HW,2013-04-27 00:05:00,
2013-04-26 17:10:00,69.5,45.4,30.21,North,0,0.0,0.0,42,0.00,,,0.00,WUHU216HW,2013-04-27 00:10:00,
2013-04-26 17:15:00,69.5,45.4,30.21,North,0,0.0,0.0,42,0.00,,,0.00,WUHU216HW,2013-04-27 00:15:00,
2013-04-26 17:20:00,69.5,44.1,30.21,North,0,0.0,0.0,40,0.00,,,0.00,WUHU216HW,2013-04-27 00:20:00,
2013-04-26 17:26:00,71.3,47.0,30.21,North,0,0.0,0.0,42,0.00,,,0.00,WUHU216HW,2013-04-27 00:26:00,
2013-04-26 17:32:00,72.4,46.0,30.21,North,0,0.0,0.0,39,0.00,,,0.00,WUHU216HW,2013-04-27 00:32:00,
2013-04-26 17:37:00,72.9,46.4,30.21,North,0,0.0,0.0,39,0.00,,,0.00,WUHU216HW,2013-04-27 00:37:00,
2013-04-26 17:42:00,73.3,46.8,30.21,North,0,0.0,0.0,39,0.00,,,0.00,WUHU216HW,2013-04-27 00:42:00,
2013-04-26 17:47:00,72.9,46.4,30.21,North,0,0.0,0.0,39,0.00,,,0.00,WUHU216HW,2013-04-27 00:47:00,
2013-04-26 17:52:00,72.7,46.3,30.21,North,0,0.0,0.0,39,0.00,,,0.00,WUHU216HW,2013-04-27 00:52:00,
2013-04-26 17:57:00,72.2,46.5,30.21,North,0,0.0,0.0,40,0.00,,,0.00,WUHU216HW,2013-04-27 00:57:00,
2013-04-26 18:02:00,72.0,46.5,30.21,North,0,0.0,0.0,40,0.00,,,0.00,WUHU216HW,2013-04-27 01:02:00,
2013-04-26 18:09:00,72.4,47.4,30.21,North,0,0.0,0.0,41,0.00,,,0.00,WUHU216HW,2013-04-27 01:09:00,
2013-04-26 18:14:00,73.1,47.3,30.21,North,0,0.0,0.0,40,0.00,,,0.00,WUHU216HW,2013-04-27 01:14:00,
2013-04-26 18:19:00,74.2,47.6,30.21,North,0,0.0,0.0,39,0.00,,,0.00,WUHU216HW,2013-04-27 01:19:00,
2013-04-26 18:24:00,74.2,46.8,30.20,North,0,0.0,0.0,38,0.00,,,0.00,WUHU216HW,2013-04-27 01:24:00,
2013-04-26 18:29:00,73.1,45.9,30.21,North,0,0.0,0.0,38,0.00,,,0.00,WUHU216HW,2013-04-27 01:29:00,
2013-04-26 18:34:00,72.4,45.3,30.20,North,0,0.0,0.0,38,0.00,,,0.00,WUHU216HW,2013-04-27 01:34:00,
2013-04-26 18:39:00,71.6,45.4,30.20,North,0,0.0,0.0,39,0.00,,,0.00,WUHU216HW,2013-04-27 01:39:00,
2013-04-26 18:44:00,71.5,45.2,30.20,North,0,0.0,0.0,39,0.00,,,0.00,WUHU216HW,2013-04-27 01:44:00,
2013-04-26 18:49:00,71.3,45.7,30.20,North,0,0.0,0.0,40,0.00,,,0.00,WUHU216HW,2013-04-27 01:49:00,
2013-04-26 18:54:00,70.9,45.5,30.20,North,0,0.0,0.0,40,0.00,,,0.00,WUHU216HW,2013-04-27 01:54:00,
2013-04-26 18:59:00,70.4,44.9,30.20,North,0,0.0,0.0,40,0.00,,,0.00,WUHU216HW,2013-04-27 01:59:00,
2013-04-26 19:04:00,69.5,44.1,30.20,North,0,0.0,0.0,40,0.00,,,0.00,WUHU216HW,2013-04-27 02:04:00,
2013-04-26 19:09:00,68.9,44.3,30.20,North,0,0.0,0.0,41,0.00,,,0.00,WUHU216HW,2013-04-27 02:09:00,
2013-04-26 19:14:00,68.4,44.4,30.20,North,0,0.0,0.0,42,0.00,,,0.00,WUHU216HW,2013-04-27 02:14:00,
2013-04-26 19:19:00,68.0,44.0,30.20,North,0,0.0,0.0,42,0.00,,,0.00,WUHU216HW,2013-04-27 02:19:00,
2013-04-26 19:24:00,68.0,44.7,30.21,North,0,0.0,0.0,43,0.00,,,0.00,WUHU216HW,2013-04-27 02:24:00,
2013-04-26 19:29:00,67.9,43.8,30.21,North,0,0.0,0.0,42,0.00,,,0.00,WUHU216HW,2013-04-27 02:29:00,
2013-04-26 19:34:00,67.5,44.1,30.21,North,0,0.0,0.0,43,0.00,,,0.00,WUHU216HW,2013-04-27 02:34:00,
2013-04-26 19:39:00,67.5,44.1,30.21,North,0,0.0,0.0,43,0.00,,,0.00,WUHU216HW,2013-04-27 02:39:00,
2013-04-26 19:44:00,67.1,43.8,30.21,North,0,0.0,0.0,43,0.00,,,0.00,WUHU216HW,2013-04-27 02:44:00,
2013-04-26 19:49:00,66.6,43.9,30.21,North,0,0.0,0.0,44,0.00,,,0.00,WUHU216HW,2013-04-27 02:49:00,
2013-04-26 19:54:00,66.1,43.5,30.21,North,0,0.0,0.0,44,0.00,,,0.00,WUHU216HW,2013-04-27 02:54:00,
2013-04-26 19:59:00,65.5,44.1,30.21,North,0,0.0,0.0,46,0.00,,,0.00,WUHU216HW,2013-04-27 02:59:00,
2013-04-26 20:04:00,64.6,43.8,30.21,North,0,0.0,0.0,47,0.00,,,0.00,WUHU216HW,2013-04-27 03:04:00,
2013-04-26 20:09:00,63.7,43.6,30.21,North,0,0.0,0.0,48,0.00,,,0.00,WUHU216HW,2013-04-27 03:09:00,
2013-04-26 20:14:00,63.0,44.1,30.20,North,0,0.0,0.0,50,0.00,,,0.00,WUHU216HW,2013-04-27 03:14:00,
2013-04-26 20:19:00,62.1,44.2,30.20,North,0,0.0,0.0,52,0.00,,,0.00,WUHU216HW,2013-04-27 03:19:00,
2013-04-26 20:24:00,61.6,44.2,30.20,North,0,0.0,0.0,53,0.00,,,0.00,WUHU216HW,2013-04-27 03:24:00,
2013-04-26 20:29:00,61.0,44.2,30.20,North,0,0.0,0.0,54,0.00,,,0.00,WUHU216HW,2013-04-27 03:29:00,
2013-04-26 20:34:00,60.8,44.1,30.20,North,0,0.0,0.0,54,0.00,,,0.00,WUHU216HW,2013-04-27 03:34:00,
2013-04-26 20:39:00,60.5,44.2,30.20,North,0,0.0,0.0,55,0.00,,,0.00,WUHU216HW,2013-04-27 03:39:00,
2013-04-26 20:44:00,60.5,44.2,30.20,North,0,0.0,0.0,55,0.00,,,0.00,WUHU216HW,2013-04-27 03:44:00,
2013-04-26 20:49:00,60.7,43.9,30.20,North,0,0.0,0.0,54,0.00,,,0.00,WUHU216HW,2013-04-27 03:49:00,
2013-04-26 20:54:00,60.5,43.8,30.20,North,0,0.0,0.0,54,0.00,,,0.00,WUHU216HW,2013-04-27 03:54:00,
2013-04-26 20:59:00,60.5,43.8,30.20,North,0,0.0,0.0,54,0.00,,,0.00,WUHU216HW,2013-04-27 03:59:00,
2013-04-26 21:01:00,60.5,43.8,30.20,North,0,0.0,0.0,54,0.00,,,0.00,WUHU216HW,2013-04-27 04:01:00,
2013-04-26 21:06:00,60.3,43.6,30.20,North,0,0.0,0.0,54,0.00,,,0.00,WUHU216HW,2013-04-27 04:06:00,
2013-04-26 21:11:00,60.3,43.6,30.20,North,0,0.0,0.0,54,0.00,,,0.00,WUHU216HW,2013-04-27 04:11:00,
2013-04-26 21:16:00,60.1,42.9,30.20,North,0,0.0,0.0,53,0.00,,,0.00,WUHU216HW,2013-04-27 04:16:00,
2013-04-26 21:21:00,60.3,43.1,30.21,North,0,0.0,0.0,53,0.00,,,0.00,WUHU216HW,2013-04-27 04:21:00,
2013-04-26 21:26:00,60.3,43.1,30.21,North,0,0.0,0.0,53,0.00,,,0.00,WUHU216HW,2013-04-27 04:26:00,
2013-04-26 21:31:00,60.1,42.4,30.21,North,0,0.0,0.0,52,0.00,,,0.00,WUHU216HW,2013-04-27 04:31:00,
2013-04-26 21:36:00,60.1,42.4,30.21,North,0,0.0,0.0,52,0.00,,,0.00,WUHU216HW,2013-04-27 04:36:00,
2013-04-26 21:42:00,60.1,42.4,30.21,North,0,0.0,0.0,52,0.00,,,0.00,WUHU216HW,2013-04-27 04:42:00,
2013-04-26 21:47:00,60.1,42.4,30.21,North,0,0.0,0.0,52,0.00,,,0.00,WUHU216HW,2013-04-27 04:47:00,
2013-04-26 21:53:00,59.8,42.1,30.21,North,0,0.0,0.0,52,0.00,,,0.00,WUHU216HW,2013-04-27 04:53:00,
2013-04-26 21:58:00,59.6,42.4,30.22,North,0,0.0,0.0,53,0.00,,,0.00,WUHU216HW,2013-04-27 04:58:00,
2013-04-26 22:03:00,59.6,43.4,30.22,North,0,0.0,0.0,55,0.00,,,0.00,WUHU216HW,2013-04-27 05:03:00,
2013-04-26 22:08:00,59.4,43.7,30.22,North,0,0.0,0.0,56,0.00,,,0.00,WUHU216HW,2013-04-27 05:08:00,
2013-04-26 22:13:00,58.9,43.7,30.22,North,0,0.0,0.0,57,0.00,,,0.00,WUHU216HW,2013-04-27 05:13:00,
2013-04-26 22:18:00,58.5,43.7,30.23,North,0,0.0,0.0,58,0.00,,,0.00,WUHU216HW,2013-04-27 05:18:00,
2013-04-26 22:23:00,58.3,43.6,30.23,North,0,0.0,0.0,58,0.00,,,0.00,WUHU216HW,2013-04-27 05:23:00,
2013-04-26 22:28:00,58.1,45.2,30.22,North,0,0.0,0.0,62,0.00,,,0.00,WUHU216HW,2013-04-27 05:28:00,
2013-04-26 22:33:00,57.8,44.5,30.22,North,0,0.0,0.0,61,0.00,,,0.00,WUHU216HW,2013-04-27 05:33:00,
2013-04-26 22:38:00,57.4,44.6,30.22,North,0,0.0,0.0,62,0.00,,,0.00,WUHU216HW,2013-04-27 05:38:00,
2013-04-26 22:43:00,57.2,44.4,30.22,North,0,0.0,0.0,62,0.00,,,0.00,WUHU216HW,2013-04-27 05:43:00,
2013-04-26 22:48:00,57.2,44.4,30.22,North,0,0.0,0.0,62,0.00,,,0.00,WUHU216HW,2013-04-27 05:48:00,
2013-04-26 22:53:00,57.1,44.2,30.22,North,0,0.0,0.0,62,0.00,,,0.00,WUHU216HW,2013-04-27 05:53:00,
2013-04-26 22:58:00,56.9,44.4,30.22,North,0,0.0,0.0,63,0.00,,,0.00,WUHU216HW,2013-04-27 05:58:00,
2013-04-26 23:03:00,56.7,44.2,30.22,North,0,0.0,0.0,63,0.00,,,0.00,WUHU216HW,2013-04-27 06:03:00,
2013-04-26 23:08:00,56.5,44.5,30.22,North,0,0.0,0.0,64,0.00,,,0.00,WUHU216HW,2013-04-27 06:08:00,
2013-04-26 23:13:00,56.5,44.8,30.21,North,0,0.0,0.0,65,0.00,,,0.00,WUHU216HW,2013-04-27 06:13:00,
2013-04-26 23:18:00,56.2,44.1,30.21,North,0,0.0,0.0,64,0.00,,,0.00,WUHU216HW,2013-04-27 06:18:00,
2013-04-26 23:23:00,56.0,43.9,30.22,North,0,0.0,0.0,64,0.00,,,0.00,WUHU216HW,2013-04-27 06:23:00,
2013-04-26 23:28:00,55.8,43.7,30.22,North,0,0.0,0.0,64,0.00,,,0.00,WUHU216HW,2013-04-27 06:28:00,
2013-04-26 23:33:00,55.8,43.4,30.21,North,0,0.0,0.0,63,0.00,,,0.00,WUHU216HW,2013-04-27 06:33:00,
2013-04-26 23:38:00,55.8,43.4,30.21,North,0,0.0,0.0,63,0.00,,,0.00,WUHU216HW,2013-04-27 06:38:00,
2013-04-26 23:43:00,55.8,42.9,30.21,North,0,0.0,0.0,62,0.00,,,0.00,WUHU216HW,2013-04-27 06:43:00,
2013-04-26 23:49:00,55.6,42.8,30.21,North,0,0.0,0.0,62,0.00,,,0.00,WUHU216HW,2013-04-27 06:49:00,
2013-04-26 23:54:00,55.4,42.6,30.21,North,0,0.0,0.0,62,0.00,,,0.00,WUHU216HW,2013-04-27 06:54:00,